FW1140 Weather Reports


Display with metric or nautical units.
time (UTC)temp
F
wind
direction
speed
MPH
gust
MPH
rain 1hr
in
rain 24hr
in
rain mn
in
humidity
%
barometer
mb
20260505101556 33 262 7.0 9.0 0.00 0.00 0.00 73 1007.6
20260505100055 34 269 6.0 9.0 0.00 0.00 0.00 73 1007.7
20260505094548 34 266 7.0 9.0 0.00 0.00 0.00 73 1007.7
20260505093045 34 262 5.0 8.0 0.00 0.00 0.00 73 1007.8
20260505091543 34 266 5.0 8.0 0.00 0.00 0.00 73 1007.7
20260505090054 35 260 5.0 7.0 0.00 0.00 0.00 71 1007.5
20260505084540 36 310 7.0 12.0 0.00 0.00 0.00 68 1007.5
20260505083036 37 301 7.0 13.0 0.00 0.00 0.00 67 1007.3
20260505081535 37 276 6.0 10.0 0.00 0.00 0.00 69 1007.1
20260505080030 38 240 7.0 11.0 0.00 0.00 0.00 68 1007.0
20260505074527 38 264 7.0 12.0 0.00 0.00 0.00 68 1006.9
20260505073035 38 262 8.0 12.0 0.00 0.00 0.00 67 1006.8
20260505071519 39 251 7.0 10.0 0.00 0.00 0.00 65 1006.8
20260505070017 39 255 7.0 11.0 0.00 0.00 0.00 65 1006.8
20260505064517 39 256 6.0 10.0 0.00 0.00 0.00 63 1006.8
20260505063015 40 271 6.0 9.0 0.00 0.00 0.00 63 1006.7
20260505061513 40 254 7.0 10.0 0.00 0.00 0.00 62 1006.7
20260505060023 40 264 7.0 10.0 0.00 0.00 0.00 62 1006.5
20260505054509 40 240 6.0 9.0 0.00 0.00 0.00 63 1006.4
20260505053005 40 259 5.0 8.0 0.00 0.00 0.00 63 1006.4
20260505051503 39 254 5.0 8.0 0.00 0.00 0.00 64 1006.3
20260505041553 41 266 6.0 8.0 0.00 0.00 0.00 60 1006.2
20260505040050 42 285 5.0 10.0 0.00 0.00 0.00 58 1006.3
20260505034548 42 274 6.0 12.0 0.00 0.00 0.00 57 1006.3
20260505033105 43 281 7.0 12.0 0.00 0.00 0.00 56 1006.0
20260505031542 44 295 6.0 10.0 0.00 0.00 0.00 54 1006.1
20260505030042 44 280 7.0 11.0 0.00 0.00 0.00 53 1005.8
20260505024541 44 287 6.0 9.0 0.00 0.00 0.00 53 1005.8
20260505023046 44 276 5.0 9.0 0.00 0.00 0.00 51 1005.5
20260505021534 44 295 6.0 10.0 0.00 0.00 0.00 50 1005.2
20260505020031 45 278 7.0 11.0 0.00 0.00 0.00 49 1004.9
20260505014531 46 289 7.0 13.0 0.00 0.00 0.00 47 1004.8
20260505013024 47 302 9.0 15.0 0.00 0.00 0.00 45 1004.6
20260505011522 48 319 13.0 19.0 0.00 0.00 0.00 44 1004.5
20260505010019 49 290 12.0 19.0 0.00 0.00 0.00 43 1004.4
20260505004535 50 329 14.0 23.0 0.00 0.00 0.00 42 1004.3
20260505003016 50 338 16.0 21.0 0.00 0.00 0.00 42 1004.1
20260505001515 50 337 18.0 24.0 0.00 0.00 0.00 41 1003.8
20260505000020 51 320 16.0 23.0 0.00 0.00 0.00 40 1003.9
20260504234525 52 297 15.0 26.0 0.00 0.00 0.00 38 1004.0
20260504233011 53 290 15.0 26.0 0.00 0.00 0.00 37 1003.8
20260504231530 53 330 20.0 26.0 0.00 0.00 0.00 38 1003.6
20260504230011 53 317 21.0 28.0 0.00 0.00 0.00 38 1003.6
20260504224508 53 325 18.0 28.0 0.00 0.00 0.00 37 1003.5
20260504223008 52 301 20.0 27.0 0.00 0.00 0.00 38 1003.4
20260504221506 53 315 19.0 30.0 0.00 0.00 0.00 38 1003.3
20260504220006 53 304 20.0 33.0 0.00 0.00 0.00 39 1003.3
20260504214509 52 304 21.0 26.0 0.00 0.00 0.00 38 1003.3
20260504213006 53 304 23.0 34.0 0.00 0.00 0.00 37 1003.0
20260504211503 53 307 24.0 33.0 0.00 0.00 0.00 37 1002.9
20260504210001 52 307 23.0 29.0 0.00 0.00 0.00 40 1002.9
20260504204500 51 309 16.0 32.0 0.00 0.00 0.00 42 1003.0
20260504203100 52 307 18.0 38.0 0.00 0.00 0.00 43 1003.0
20260504201559 52 303 22.0 36.0 0.00 0.00 0.00 45 1002.8
20260504200058 52 308 23.0 33.0 0.00 0.00 0.00 44 1002.5
20260504194558 53 334 23.0 35.0 0.00 0.00 0.00 45 1002.4
20260504193054 53 316 22.0 33.0 0.00 0.00 0.00 45 1002.3
20260504191553 54 322 25.0 36.0 0.00 0.00 0.00 43 1002.0
20260504190059 54 300 21.0 34.0 0.00 0.00 0.00 43 1002.0
20260504184602 55 297 24.0 34.0 0.00 0.00 0.00 45 1001.9
20260504183057 55 319 23.0 33.0 0.00 0.00 0.00 44 1001.5
20260504181549 54 291 19.0 31.0 0.00 0.00 0.00 45 1001.4
20260504180045 54 297 20.0 29.0 0.00 0.00 0.00 45 1001.2
20260504174548 55 290 22.0 34.0 0.00 0.00 0.00 43 1000.8
20260504173042 55 321 21.0 31.0 0.00 0.00 0.00 43 1000.4
20260504171545 55 283 18.0 28.0 0.00 0.00 0.00 42 1000.4